Regional Weather Roundup
Issued by NWS

Home | Current Version | Previous Version | Graphics & Text | Print | Product List | Glossary On
Versions: 1 2 3 4 5 6 7 8 9 10 11 12 13 14 15 16 17 18 19 20 21 22 23 24 25 26 27 28 29 30 31 32 33 34 35 36 37 38 39 40 41 42 43 44 45 46 47 48 49 50
000
ASUS43 KLMK 282102
RWRKY
KENTUCKY REGIONAL WEATHER ROUNDUP
NATIONAL WEATHER SERVICE LOUISVILLE KY
500 PM EDT FRI APR 28 2017

NOTE "FAIR" INDICATES FEW OR NO CLOUDS BELOW 12,000 FEET
WITH NO SIGNIFICANT WEATHER AND/OR OBSTRUCTIONS TO VISIBILITY.

KYZ001>023-026-027-061>063-070>075-282200-
WESTERN AND SOUTH CENTRAL KENTUCKY

CITY           SKY/WX    TMP DP  RH WIND       PRES   REMARKS
PADUCAH        CLOUDY    75  66  73 S9G20     29.77R
HENDERSON      CLOUDY    72  63  73 SE12      29.78F
OWENSBORO      LGT RAIN  71  67  87 S13       29.80F
HOPKINSVILLE   MOSUNNY   77  69  74 S10       29.81F
BOWLING GREEN  CLOUDY    79  67  66 S12       29.86F
GLASGOW        NOT AVBL
$$

KYZ024-025-028>034-038-045-046-053-282200-
NORTH CENTRAL KENTUCKY

CITY           SKY/WX    TMP DP  RH WIND       PRES   REMARKS
LOUISVILLE/SDF CLOUDY    79  62  56 SE10      29.83F
LOUISVILLE/LOU PTSUNNY   78  63  59 SE8       29.84F
FORT KNOX      CLOUDY    78  62  59 S20       29.83F
$$

KYZ035>037-039>044-047>052-055>060-089>105-282200-
NORTHEAST KENTUCKY

CITY           SKY/WX    TMP DP  RH WIND       PRES   REMARKS
LEXINGTON      CLOUDY    79  58  48 S10       29.91F
COVINGTON      PTSUNNY   74  56  53 SE10      29.90F
FRANKFORT      CLOUDY    78  58  49 SE7       29.89F
$$

KYZ054-064>069-076>088-106>120-282200-
SOUTHEAST KENTUCKY

CITY           SKY/WX    TMP DP  RH WIND       PRES   REMARKS
JACKSON        PTSUNNY   83  54  36 CALM      29.94F
LONDON         CLOUDY    80  58  46 SW13      29.95R
SOMERSET       MOSUNNY   79  59  50 S7G17     29.94S
MIDDLESBORO    SUNNY     82  63  52 SW9       29.96F
MONTICELLO     CLOUDY    80  64  58 SW15      29.95R
$$




USA.gov is the U.S. government's official web portal to all federal, state and local government web resources and services.